Location: Neuvy Saint Sepulchre
(46.5953°N, 1.8122°E)
Time: 11:03:39
(UTC+02:00)

ISS - Pass Details

Date: 08 May 2021
Orbit: 417 x 422 km, 51.6° (Epoch: 15 May)

Event Time Altitude Azimuth Distance (km) Brightness Sun altitude
Exits shadow 02:49:24 25° 60° (ENE) 885 -1.7 -24.9°
Drops below altitude 10° 02:50:58 10° 63° (ENE) 1,506 -0.4 -24.8°
Sets 02:53:05 0° 64° (ENE) 2,373 0.7 -24.7°
